CST,Max TemperatureF,Mean TemperatureF,Min TemperatureF,Max Dew PointF,MeanDew PointF,Min DewpointF,Max Humidity, Mean Humidity, Min Humidity, Max Sea Level PressureIn, Mean Sea Level PressureIn, Min Sea Level PressureIn, Max VisibilityMiles, Mean VisibilityMiles, Min VisibilityMiles, Max Wind SpeedMPH, Mean Wind SpeedMPH, Max Gust SpeedMPH,PrecipitationIn, CloudCover, Events, WindDirDegrees
2013-2-1,0,-9,-18,-9,-18,-26,72,60,47,30.27,30.19,30.12,10,10,7,13,8,10,0.00,3,,264
2013-2-2,12,1,-10,1,-9,-18,75,60,42,30.17,30.08,29.96,10,10,5,9,4,,0.00,4,Snow,258
2013-2-3,11,4,-2,2,-5,-9,76,61,45,30.04,29.99,29.93,10,10,10,17,8,22,0.00,2,,312
2013-2-4,11,-1,-13,6,-9,-18,85,62,42,30.07,29.96,29.72,10,9,2,10,4,,0.00,3,Snow,257
2013-2-5,21,14,7,13,5,-3,95,71,39,30.07,29.85,29.63,10,8,1,12,4,16,0.01,5,Snow,320
2013-2-6,22,14,5,21,11,-1,95,82,60,30.11,30.07,30.03,10,7,1,15,3,18,0.02,8,Snow,87
2013-2-7,27,25,23,23,21,18,91,86,79,30.31,30.19,30.11,10,8,3,17,10,26,0.01,8,Snow,70
2013-2-8,24,14,2,19,13,1,95,77,60,30.41,30.34,30.26,10,9,2,12,5,20,0.00,5,Snow,100
2013-2-9,29,14,0,26,18,-2,90,85,78,30.26,30.08,29.99,10,9,5,13,3,17,0.00,7,,188
2013-2-10,32,28,25,31,26,22,97,92,83,29.98,29.66,29.33,10,4,0,25,9,38,0.15,8,Snow,81
2013-2-11,32,26,21,32,20,14,99,76,66,29.95,29.67,29.33,10,10,2,22,11,28,0.00,8,Snow,324
2013-2-12,32,21,10,19,16,8,90,74,59,29.96,29.84,29.71,10,10,10,16,8,20,0.00,5,Snow,237
2013-2-13,38,30,21,27,23,18,86,75,61,29.71,29.65,29.59,10,10,10,12,7,,0.00,5,,231
2013-2-14,30,22,14,26,12,0,91,64,38,30.13,29.90,29.67,10,10,10,17,6,24,0.00,5,,343
2013-2-15,16,8,1,3,0,-4,85,66,47,30.27,30.22,30.14,10,10,5,18,8,23,0.00,5,,314
2013-2-16,16,4,-7,3,-3,-11,87,71,44,30.22,30.18,30.13,10,10,5,6,2,,0.00,3,,195
2013-2-17,29,8,-13,17,2,-19,84,66,51,30.14,29.92,29.69,10,10,10,14,3,21,0.00,5,,185
2013-2-18,29,20,11,25,17,1,87,75,64,29.74,29.59,29.51,10,9,3,21,6,30,0.00,7,Snow,333
2013-2-19,10,4,-2,1,-8,-13,67,59,49,30.34,30.05,29.75,10,10,10,21,13,31,0.00,5,,341
2013-2-20,16,5,-6,1,-5,-13,88,68,47,30.49,30.45,30.34,10,10,7,12,5,,0.00,0,,22
2013-2-21,24,7,-10,22,7,-15,91,80,68,30.52,30.39,30.18,10,10,5,20,6,29,0.00,6,Snow,84
2013-2-22,29,26,23,27,24,20,97,88,79,30.18,29.96,29.83,10,6,0,16,10,24,0.05,8,Snow,79
2013-2-23,33,26,20,28,22,19,91,76,63,29.92,29.83,29.80,10,10,5,13,5,,0.00,8,Snow,316
2013-2-24,38,25,12,22,19,12,96,73,48,30.07,30.02,29.93,10,10,10,12,5,,0.00,1,,239
2013-2-25,36,25,14,22,18,13,96,77,54,30.11,30.07,30.03,10,10,7,12,5,,0.00,0,,226
2013-2-26,34,20,7,28,20,5,98,87,75,30.10,30.03,29.97,10,8,1,14,5,21,0.00,2,,60
2013-2-27,33,30,26,27,24,20,87,76,64,30.06,29.98,29.94,10,10,10,16,9,22,0.00,6,,42
2013-2-28,30,26,21,23,18,13,77,70,60,30.29,30.20,30.07,10,10,10,15,9,22,0.00,6,Snow,58